Regional Weather Roundup
Issued by NWS Grand Forks, ND

Home | Current Version | Previous Version | Graphics & Text | Print | Product List | Glossary On
Versions: 1 2 3 4 5 6 7 8 9 10 11 12 13 14 15 16 17 18 19 20 21 22 23 24 25 26 27 28 29 30 31 32 33 34 35 36 37 38 39 40 41 42 43 44 45 46 47 48 49 50
000
ASUS43 KFGF 181731
RWRFGF
PRAIRIE TO PINES  WEATHER ROUNDUP
NATIONAL WEATHER SERVICE EASTERN NORTH DAKOTA/GRAND FORKS ND
1200 PM CDT SAT APR 18 2015

 **SATELLITE DATA USED TO AUGMENT SKY COVER AT AUTOMATED STATIONS**
 *****  WEATHER ACROSS EASTERN NORTH DAKOTA  *****

CITY           SKY/WX    TMP DP  RH WIND       PRES   REMARKS
GRAND FORKS    MOSUNNY   60  31  33 S7        30.05F
GRAND FRKS AFB SUNNY     59  30  34 SE9       30.05F
GRAND FRKS NWS   N/A     63 N/A N/A SE3         N/A
DEVILS LAKE    SUNNY     59  32  36 SE13      30.00F
FARGO          MOSUNNY   66  29  24 SE13      30.03F
WAHPETON ARPT  SUNNY     68  25  19 SE15      30.01F
$$

 ***** WEATHER ACROSS CENTRAL AND WESTERN NORTH DAKOTA  *****

CITY           SKY/WX    TMP DP  RH WIND       PRES   REMARKS
BISMARCK       CLOUDY    53  30  41 CALM      30.01F
MINOT          SUNNY     64  25  22 S9        29.95F
JAMESTOWN      PTSUNNY   57  27  31 SE9       30.01F
MINOT AFB      SUNNY     63  28  26 S13       29.95F
GARRISON         N/A     60  29  30 SE8       29.96F
WILLISTON      SUNNY     67  37  33 S16       29.91F
DICKINSON      SUNNY     66  32  28 SW15      29.94F
HETTINGER      CLOUDY    52  40  63 CALM      29.99F
$$

 *****  OTHER AIRPORT OBSERVATIONS IN OUR AREA  *****

CITY           SKY/WX    TMP DP  RH WIND       PRES   REMARKS
WALHALLA       FAIR      55  32  41 S18       30.04F
GRAFTON AIRPOR FAIR      59  32  36 SE12G18   30.05F
VALLEY CITY AR PTSUNNY   61  30  31 SE12      30.02F
CANDO          FAIR      59  28  31 S14       30.01F
CAVALIER APRT  FAIR      57  34  41 S9        30.05F
GWINNER        SUNNY     66  32  28 SE15      30.01F
ROLLA          FAIR      59  27  29 S18G24    30.00F
 ***** THE ABOVE OBSERVATIONS ARE NON NWS ARE NOT QUALITY
       CONTROLLED AND MAY MIS-REPORT RAIN FOR SNOW...
$$

  *****  WEATHER ACROSS NORTHERN MINNESOTA  *****

CITY           SKY/WX    TMP DP  RH WIND       PRES   REMARKS
FLAG ISLAND    SUNNY     45  34  65 S9        30.14F
WARROAD        SUNNY     48  32  53 E9        30.12F
ROSEAU         SUNNY     57  23  26 SE15      30.10F
HALLOCK        SUNNY     59  25  27 SE14      30.06F
THF RVR FALLS  SUNNY     57  30  35 SE13G18   30.07F
BAUDETTE       SUNNY     55  23  28 SE14      30.14F
WASKISH        SUNNY     57  28  33 E14       30.12F
CROOKSTON      SUNNY     61  30  31 SE8       30.06F
STEPHEN NDAWN    N/A     57  30  35 SE12        N/A
GREENBUSH NDAW   N/A     57  27  30 SE14        N/A
$$
  *****  WEATHER ACROSS CENTRAL AND WEST MINNESOTA  *****

CITY           SKY/WX    TMP DP  RH WIND       PRES   REMARKS
FOSSTON        SUNNY     61  30  31 SE7       30.07F
BEMIDJI        SUNNY     56  30  37 SE13G18   30.10F
PARK RAPIDS    SUNNY     58  29  33 SE13      30.08F
ELBOW LAKE     FAIR      63  32  30 SE13      30.02F
WADENA         SUNNY     59  32  36 E10G18    30.06F
DETROIT LAKES  SUNNY     59  32  36 SE12      30.06F
MOORHEAD       MOSUNNY   66  28  24 SE10      30.03F
FERGUS FALLS   SUNNY     64  21  19 SE13      30.03F
MORRIS MN      MOSUNNY   72  30  21 SE15G22   30.00F
STAPLES        SUNNY     57  28  33 E8        30.07F
$$
  *****  WEATHER ELSEWHERE ACROSS MINNESOTA  *****

CITY           SKY/WX    TMP DP  RH WIND       PRES   REMARKS
DULUTH         SUNNY     48  32  53 E18G25    30.19F
INTRNTL FALLS  SUNNY     54  21  27 SE14G22   30.17F
ELY            SUNNY     54  19  26 SE15      30.19F
CLOQUET        SUNNY     48  30  49 E15G23    30.17S
WHEATON        MOSUNNY   66  30  26 SE14      30.02F
BRAINERD       MOSUNNY   56  30  37 E9        30.11F
HIBBING        SUNNY     55  25  31 SE14G23   30.16F
ALEXANDRIA     SUNNY     62  31  31 E15       30.05F
SAINT CLOUD    SUNNY     61  31  32 E10       30.07F
MINNEAPOLIS    MOSUNNY   66  33  29 E10       30.06F
$$

  *****  WEATHER ACROSS SOUTH DAKOTA  *****

CITY           SKY/WX    TMP DP  RH WIND       PRES   REMARKS
SIOUX FALLS    CLOUDY    62  38  40 E13       29.93F
BROOKINGS      CLOUDY    68  28  22 SE17G23   29.95F
WATERTOWN      MOSUNNY   68  26  20 SE18      29.98F
HURON          CLOUDY    68  26  20 SE13G21   29.93F
SISSETON         N/A     66  28  24 SE13      30.00F
ABERDEEN       CLOUDY    71  22  15 SE12G23   29.97F
MITCHELL       CLOUDY    61  37  41 CALM      29.95S
PIERRE         CLOUDY    54  36  50 NE14      29.93F
MOBRIDGE       PTSUNNY   64  26  23 S7        29.96F
RAPID CITY     LGT RAIN  50  44  80 NE13      29.97F
$$

  *****  SOME WEATHER IN NEARBY STATES *****

CITY           SKY/WX    TMP DP  RH WIND       PRES   REMARKS
GLASGOW MT     MOSUNNY   55  36  48 N29G37    30.00R
GREAT FALLS MT LGT SNOW  34  33  96 N17       30.28R FOG     WCI  23
CHEYENNE WY    PTSUNNY   38  33  82 N13       29.93S
SCOTTSBLUFF NE CLOUDY    49  32  52 SE5       29.93S
OMAHA NE       LGT RAIN  61  59  93 N7        29.90F FOG
DES MOINES IA  CLOUDY    72  55  55 E9        29.93F
DAVENPORT IA   PTSUNNY   75  51  43 E14       30.01S
CHICAGO IL     PTSUNNY   57  38  48 NE15      30.09F
EAU CLAIRE WI  MOSUNNY   64  29  26 E12       30.09F
LA CROSSE WI   MOSUNNY   70  34  26 E10       30.06F
$$

  *****  SOME NATIONAL WEATHER *****

CITY           SKY/WX    TMP DP  RH WIND       PRES   REMARKS
LA GUARDIA NY  PTSUNNY   74  40  29 NW6       29.93F
RALEIGH NC     PTSUNNY   78  63  59 SE7       30.00F
ATLANTA GA     LGT RAIN  68  63  84 SE6       30.01R
NEW ORLEANS LA CLOUDY    74  66  76 E7        29.90F
OKLAHOMA CITY  PTSUNNY   71  60  68 SE6       29.92F
ALBUQUERQUE NM PTSUNNY   50  29  44 N10       30.02F
SALT LAKE CITY SUNNY     59  37  44 VRB3      30.04S
LOS ANGELES CA SUNNY     68  43  40 VRB6      30.02S
BOISE ID       SUNNY     63  35  35 NW22      30.11F
SEATTLE WA     SUNNY     55  41  59 N9        30.37R
$$

*** WEATHER ACROSS MANITOBA...SASKATCHEWAN AND ONTARIO ***
                ***ONTARIO***

CITY           SKY/WX    TMP DP  RH WIND       PRES   REMARKS
GERALDTON      MOSUNNY   43  30  61 E7        30.28F
THUNDER BAY    MOSUNNY   52  27  37 E12       30.28S
SIOUX LOOKOUT  MOSUNNY   52  25  35 SE5       30.21F
TORONTO        MOSUNNY   61  30  31 N28       30.05R
BIG TROUT LK   SUNNY     39  23  52 SE5       30.26S
PICKLE LAKE    MOSUNNY   46  27  46 VRB6      30.23F
DRYDEN         SUNNY     54  23  30 SE10G18   30.19F
KENORA         MOSUNNY   54  23  30 SE15G26   30.16F
$$
                *** MANITOBA***

CITY           SKY/WX    TMP DP  RH WIND       PRES   REMARKS
BRANDON        MOSUNNY   59  34  38 S15       29.98F
DAUPHIN        PTSUNNY   61  28  29 SW17G23   29.88F
ISLAND LAKE    PTSUNNY   46  34  61 SE10      30.12F
PILOT MOUND      N/A     59  28  31 S17G24      N/A
THE PAS        CLOUDY    39  36  87 SE7       29.86F
THOMPSON       LGT RAIN  41  34  75 VRB2      30.05R
WINNIPEG       MOSUNNY   55  27  33 SE18G25   30.08F
LYNN LAKE      LGT RAIN  37  36  93 E3        29.95F
CHURCHILL      FLURRIES  21  12  68 E7        30.28S WCI  13
GILLAM         CLOUDY    34  30  86 E9        30.16F
$$
                ***SASKATCHEWAN***

CITY           SKY/WX    TMP DP  RH WIND       PRES   REMARKS
ESTEVAN        MOSUNNY   66  34  30 S17       29.89F
KINDERSLEY     PTSUNNY   45  28  53 NW28G38   30.09R
LLOYDMINSTER   CLOUDY    41  34  75 NW26G37   30.05R
PRINCE ALBERT  CLOUDY    46  37  71 NW16G30   29.89R
REGINA         PTSUNNY   54  39  58 NW16G28   29.96R
YORKTON        MOSUNNY   52  32  46 SW13      29.87F
N. BATTLEFORD  CLOUDY    43  34  70 NW22G32   30.03R
LA RONGE       CLOUDY    41  39  93 NE6       29.86R
SASKATOON      PTSUNNY   46  34  61 NW25G35   29.98R
SWIFT CURRENT  PTSUNNY   46  32  57 NW29G37   30.06R
$$
NOTE: THESE ARE AUTOMATED STATIONS WITH LIMITED QUALITY CONTROL
      "FAIR" INDICATES FEW OR NO CLOUDS BELOW 12,000 FEET WITH NO
      SIGNIFICANT WEATHER AND/OR OBSTRUCTIONS TO VISIBILITY.
      SKY/WX - SKY CONDITION AND SIGNIFICANT WEATHER.
      TMP - AIR TEMPERATURE.    DP   - DEWPOINT TEMPERATURE.
      RH  - RELATIVE HUMIDITY.  PRES - PRESSURE.
      HX  - HEAT INDEX.         WCI  - WIND CHILL INDEX.
$



USA.gov is the U.S. government's official web portal to all federal, state and local government web resources and services.